Regional Weather Roundup
Issued by NWS Upton, NY

Home | Current Version | Previous Version | Text Only | Print | Product List | Glossary On
Versions: 1 2 3 4 5 6 7 8 9 10 11 12 13 14 15 16 17 18 19 20 21 22 23 24 25 26 27 28 29 30 31 32 33 34 35 36 37 38 39 40 41 42 43 44 45 46 47 48 49
000
ASUS41 KOKX 140705
RWROKX

REGIONAL WEATHER ROUNDUP
NATIONAL WEATHER SERVICE NEW YORK NY
300 AM EDT MON JUL 14 2014

NOTE: "FAIR" INDICATES FEW OR NO CLOUDS BELOW 12,000 FEET WITH NO
SIGNIFICANT WEATHER AND/OR OBSTRUCTIONS TO VISIBILITY.

NYZ071-072-176-178-NJZ106-104-140800-
NEW YORK CITY METRO AREA


CITY           SKY/WX    TMP DP  RH WIND       PRES   REMARKS
CENTRAL PARK     N/A     72  70  94 MISG        N/A
LAGUARDIA APRT CLOUDY    74  70  87 S9        29.88F
KENNEDY INTL   CLOUDY    73  69  87 S8        29.90S
NEWARK/LIBERTY CLOUDY    73  71  93 SW6       29.90S
BRNX BOT. GARD   N/A     72  70  94 NW2       29.91S
TETERBORO      CLOUDY    74  70  87 SW3       29.88F
$$

NYZ177-179-078>081-140800-
LONG ISLAND NEW YORK

CITY           SKY/WX    TMP DP  RH WIND       PRES   REMARKS
FARMINGDALE    CLOUDY    71  69  93 S5        29.90F
ISLIP          LGT RAIN  73  69  87 S6        29.88F
SHIRLEY        CLOUDY    73  69  87 S6        29.91F
WESTHAMPTON    CLOUDY    72  69  90 S8        29.92F
MONTAUK POINT    N/A     72  68  87 SW10G22   29.93F
$$

NYZ052-065-067-140800-
HUDSON VALLEY

CITY           SKY/WX    TMP DP  RH WIND       PRES   REMARKS
WHITE PLAINS   CLOUDY    70  68  93 NW6       29.89F
NEWBURGH       CLOUDY    70  70 100 W7        29.91S
MONTGOMERY     MOCLDY    70  68  93 SW7       29.88F
POUGHKEEPSIE   MOCLDY    71  69  93 CALM      29.87F
ALBANY         FOG       68  66  93 S3        29.86F VSB 1/4
$$

NJZ001-105-106-008-010-013-015-019>022-104-140800-
NEW JERSEY

CITY           SKY/WX    TMP DP  RH WIND       PRES   REMARKS
NEWARK/LIBERTY CLOUDY    73  71  93 SW6       29.90S
TETERBORO      CLOUDY    74  70  87 SW3       29.88F
CALDWELL       CLOUDY    71  70  96 CALM      29.91R
MORRISTOWN     CLOUDY    72  70  94 CALM      29.91S
SOMERVILLE     CLOUDY    71  69  93 CALM      29.90S
LINDEN         FAIR      73  72  94 CALM      29.93R
SUSSEX         CLOUDY    71  68  90 SW3       29.90F
ANDOVER          N/A     70  69  97 CALM      29.92S
TRENTON        CLOUDY    72  69  90 SW5       29.92S
MILLVILLE      CLOUDY    74  69  85 CALM      29.94F
ATLANTIC CITY  CLOUDY    75  67  76 SW6       29.93F
WRIGHTSTOWN    CLOUDY    75  68  78 W2        29.90F HAZE
TOMS RIVER     MOCLDY    73  72  94 SW3       29.93S
BELMAR         CLOUDY    75  70  83 SW5       29.92S
$$

PAZ047>061-062-071-140800-
EASTERN PENNSYLVANIA

CITY           SKY/WX    TMP DP  RH WIND       PRES   REMARKS
PHILADELPHIA   CLOUDY    75  67  76 SW9       29.93S
ALLENTOWN      CLOUDY    72  70  93 SW5       29.92F
SCRANTON       CLOUDY    71  67  87 SW5       29.92F
$$

CTZ002-004>006-009-010-012-RIZ004-006-007-MAZ004-011-015-140800-
SOUTHERN NEW ENGLAND
 IN CT

CITY           SKY/WX    TMP DP  RH WIND       PRES   REMARKS
BRADLEY INTL   LGT RAIN  73  71  93 S7        29.86F FOG
HARTFORD       LGT RAIN  73  70  90 S9        29.87F
DANBURY        CLOUDY    71  67  87 W3        29.90F
WTRBRY/OXFORD  CLOUDY    70  66  88 CALM      29.91F
BRIDGEPORT     LGT RAIN  72  70  93 W6        29.88F
MERIDEN        CLOUDY    73  68  84 CALM      29.88F
NEW HAVEN      CLOUDY    75  69  81 S6        29.89F
CHESTER        FAIR      72  70  94 SW6       29.91F
GROTON         CLOUDY    69  67  93 SW9       29.90F
WILLIMANTIC    LGT RAIN  73  69  87 S7        29.88F

 IN RI

CITY           SKY/WX    TMP DP  RH WIND       PRES   REMARKS
PROVIDENCE     CLOUDY    73  67  81 S10       29.90F
BLOCK ISLAND   MOCLDY    70  64  83 SW17G23   29.93F
WESTERLY       CLOUDY    71  66  84 SW9       29.92F

 IN MA

CITY           SKY/WX    TMP DP  RH WIND       PRES   REMARKS
BOSTON         CLOUDY    74  68  81 SW13      29.86F
WORCESTER      RAIN      70  69  97 SW12      29.90S FOG
WESTFIELD      CLOUDY    72  70  93 S6        29.85F
PROVINCETOWN   MOCLDY    70  64  83 S12       29.91F
NANTUCKET      MOCLDY    68  66  93 S14       29.95F
$$

ANZ330-335-338-340-345-350-353-355-140800-
COASTAL MARINE OBSERVATIONS


STATION/POSITION TIME  SKY/WX   TEMP    WIND        PRES    VSBY  WAVE
                                AIR SEA DIR/SP/G                  HT/PER
                 (UTC)          (F)     (DEG/KT/KT) (MB)    (MI)  (FT/S)
NY HARB ENTRANCE NOT AVBL
4S FIRE IS       0600               68                N/A           6/ 6
23SW MTP         0700            69 67              1013.3          5/ 6
HUDSON CANYON    0700            73 71  210/ 16/ 19 1014.1          5/ 6
EXECUTION ROCKS  0700            69 66  220/  4/  6   N/A
WESTERN LI SOUND 0700            71     230/  6/  8   N/A           1
CENTRAL LI SOUND 0600            73 70  240/ 14/ 19   N/A           3/ 4
EASTERN LI SOUND 0600            69 63  220/ 14/ 17   N/A
ROBBINS REEF     0700            72     210/  7/  8   N/A
$$


>>>>>>>>>>>>>>>>>>>>>>>>>>>> KEY <<<<<<<<<<<<<<<<<<<<<<<<<<<
>                                                          <
>     SKY/WX - SKY CONDITION/PRESENT WEATHER               <
>     TMP    - TEMPERATURE IN FAHRENHEIT                   <
>     DP     - DEWPOINT IN FAHRENHEIT                      <
>     RH     - RELATIVE HUMIDITY IN PERCENT                <
>     WIND   - DIRECTION AND SPEED IN MPH                  <
>     PRES   - MEAN SEA LEVEL PRESSURE IN INCHES OF HG     <
>     WCI    - WIND CHILL INDEX                            <
>     VSB    - VISIBILITY IN MILES                         <
>     HX     - HEAT INDEX                                  <
>     TC     - TEMPERATURE IN CELSIUS                      <
>     VRB    - VARIABLE WIND DIRECTION                     <
>                                                          <
>>>>>>>>>>>>>>>>>>>>>>>>>>>> KEY <<<<<<<<<<<<<<<<<<<<<<<<<<<




USA.gov is the U.S. government's official web portal to all federal, state and local government web resources and services.